Eagle Creek, IN

9:47 PM EDT on September 17, 2019 (GMT -0400)
Eagle Creek

Weather History for KEYE - May, 2019

Change the Weather History Date:

Thursday, May 23, 2019

  Actual Average Record
Temperature  
Mean Temperature 74 °F 65 °F  
Max Temperature 83 °F 75 °F 88 °F (2007)
Min Temperature 65 °F 55 °F 43 °F (1997)
Degree Days  
Heating Degree Days 0 3  
Month to date heating degree days 129 120  
Since 1 July heating degree days 5307 5315  
Cooling Degree Days 9 3  
Month to date cooling degree days 32 40  
Year to date cooling degree days 32 55  
Growing Degree Days 23 (Base 50)    
Moisture  
Dew Point 66 °F    
Average Humidity 78    
Maximum Humidity 93    
Minimum Humidity 63    
Precipitation  
Precipitation 0.45 in 0.15 in 1.36 in (1998)
Month to date precipitation 3.37 4.25  
Year to date precipitation 20.03 15.79  
Sea Level Pressure  
Sea Level Pressure 30.04 in    
Wind  
Wind Speed 7 mph (WSW)    
Max Wind Speed 28 mph    
Max Gust Speed 37 mph    
Visibility 9 miles    
Events Rain , Thunderstorm    
T = Trace of Precipitation, MM = Missing Value Source: NWS Daily Summary

Daily Weather History Graph

Daily Weather History Graph

Search for Another Location

Airport or City:

Astronomy

May. 23, 2019 Rise Set
Actual Time 6:24 AM EDT 9:00 PM EDT
Civil Twilight 5:52 AM EDT 9:31 PM EDT
Nautical Twilight 5:13 AM EDT 10:10 PM EDT
Astronomical Twilight 4:30 AM EDT 10:54 PM EDT
Moon 12:42 AM EDT (5/23) 10:26 AM EDT (5/23)
Length of Visible Light 15h 38m
Length of Day
14h 36m
Waning Gibbous, 77% of the Moon is Illuminated
May 23
Waning Gibbous
May 26
Last Quarter
Jun 3
New
Jun 10
First Quarter
Jun 17
Full

Hourly Weather History & Observations

Time (EDT) Temp. Heat Index Dew Point Humidity Pressure Visibility Wind Dir Wind Speed Gust Speed Precip Events Conditions
12:53 AM 68.0 °F - 64.0 °F 87% 29.99 in 10.0 mi South 4.6 mph - N/A   Clear
1:53 AM 68.0 °F - 64.9 °F 90% 29.97 in 10.0 mi SSE 4.6 mph - N/A   Clear
2:53 AM 66.9 °F - 64.9 °F 93% 29.97 in 9.0 mi Calm Calm - N/A   Partly Cloudy
3:53 AM 69.1 °F - 66.0 °F 90% 29.96 in 8.0 mi Variable 4.6 mph - N/A   Clear
4:53 AM 73.0 °F - 68.0 °F 84% 29.97 in 10.0 mi SSW 8.1 mph - N/A   Clear
5:22 AM 68.0 °F - 62.1 °F 81% 30.05 in 2.5 mi West 13.8 mph 36.8 mph 0.13 in Rain , Thunderstorm Thunderstorms and Rain
5:38 AM 66.9 °F - 63.0 °F 87% 30.06 in 6.0 mi West 9.2 mph 19.6 mph 0.19 in Rain , Thunderstorm Light Thunderstorms and Rain
5:53 AM 66.0 °F - 63.0 °F 90% 30.04 in 9.0 mi Variable 5.8 mph - 0.20 in Rain , Thunderstorm Light Rain
6:36 AM 64.9 °F - 62.1 °F 90% 30.07 in 8.0 mi SW 5.8 mph - 0.06 in Rain Light Rain
6:53 AM 66.0 °F - 62.1 °F 87% 30.06 in 4.0 mi Variable 6.9 mph - 0.10 in Rain Rain
7:00 AM 66.0 °F - 62.1 °F 87% 30.08 in 4.0 mi SW 8.1 mph - 0.02 in Rain , Thunderstorm Rain
7:15 AM 64.9 °F - 63.0 °F 93% 30.09 in 5.0 mi SW 5.8 mph - 0.06 in Rain Rain
7:53 AM 66.0 °F - 63.0 °F 90% 30.05 in 8.0 mi SSW 8.1 mph - 0.14 in Rain Light Rain
8:53 AM 66.9 °F - 63.0 °F 87% 30.04 in 10.0 mi SW 8.1 mph - 0.01 in Rain Light Rain
9:53 AM 70.0 °F - 64.9 °F 84% 30.04 in 10.0 mi SSW 6.9 mph - 0.00 in   Mostly Cloudy
10:53 AM 73.9 °F - 66.0 °F 76% 30.05 in 10.0 mi SW 8.1 mph - N/A   Partly Cloudy
11:11 AM 75.0 °F - 66.0 °F 73% 30.07 in 10.0 mi SW 9.2 mph - N/A   Mostly Cloudy
11:53 AM 75.0 °F - 66.0 °F 73% 30.06 in 10.0 mi Variable 6.9 mph - N/A   Overcast
12:14 PM 75.9 °F - 66.9 °F 74% 30.06 in 10.0 mi WSW 9.2 mph 19.6 mph N/A   Scattered Clouds
12:53 PM 78.1 °F - 69.1 °F 74% 30.05 in 10.0 mi WSW 8.1 mph 20.7 mph N/A   Scattered Clouds
1:08 PM 78.1 °F - 69.1 °F 74% 30.07 in 10.0 mi SW 12.7 mph 24.2 mph N/A   Mostly Cloudy
1:53 PM 78.1 °F - 70.0 °F 76% 30.06 in 10.0 mi WSW 8.1 mph 17.3 mph N/A   Overcast
2:34 PM 80.1 °F 83.2 °F 70.0 °F 71% 30.06 in 10.0 mi WSW 8.1 mph 26.5 mph N/A   Mostly Cloudy
2:53 PM 79.0 °F - 69.1 °F 72% 30.04 in 10.0 mi SW 9.2 mph 19.6 mph N/A   Mostly Cloudy
3:06 PM 80.1 °F 83.2 °F 70.0 °F 71% 30.04 in 10.0 mi WSW 8.1 mph 19.6 mph N/A   Mostly Cloudy
3:32 PM 81.0 °F 84.1 °F 69.1 °F 67% 30.04 in 10.0 mi WSW 11.5 mph 25.3 mph N/A   Scattered Clouds
3:53 PM 82.0 °F 85.5 °F 69.1 °F 65% 30.02 in 10.0 mi West 12.7 mph 21.9 mph N/A   Mostly Cloudy
4:53 PM 82.0 °F 85.5 °F 69.1 °F 65% 30.01 in 10.0 mi West 8.1 mph 21.9 mph N/A   Mostly Cloudy
5:53 PM 82.0 °F 84.9 °F 68.0 °F 62% 30.02 in 10.0 mi West 10.4 mph 20.7 mph N/A   Mostly Cloudy
6:53 PM 81.0 °F 83.8 °F 68.0 °F 65% 30.03 in 10.0 mi WNW 13.8 mph - N/A   Partly Cloudy
7:53 PM 79.0 °F - 68.0 °F 69% 30.03 in 10.0 mi West 9.2 mph - N/A   Partly Cloudy
8:53 PM 77.0 °F - 68.0 °F 74% 30.04 in 10.0 mi NNW 4.6 mph - N/A   Clear
9:53 PM 73.0 °F - 66.9 °F 81% 30.06 in 10.0 mi WNW 4.6 mph - N/A   Clear
10:53 PM 70.0 °F - 66.9 °F 90% 30.07 in 10.0 mi NW 3.5 mph - N/A   Clear
11:53 PM 70.0 °F - 64.9 °F 84% 30.08 in 10.0 mi North 4.6 mph - N/A   Clear